Location: Starry Hill Observatory
(46.8582°N, 122.3590°W)
Time: 12:53:30
(UTC-07:00)

ISS - Visible Passes

Search period start: 31 May 2016 00:00
Search period end: 10 June 2016 00:00
Orbit: 402 x 404 km, 51.6° (Epoch: 31 May)

Date Brightness Start Highest point End Pass type
(mag) Time Alt. Az. Time Alt. Az. Time Alt. Az.
31 May -1.7 00:31:22 10° WNW 00:34:25 35° N 00:37:28 10° ENE visible
31 May -3.4 02:07:50 10° WNW 02:10:55 78° WNW 02:10:55 78° WNW visible
31 May -2.6 22:01:25 10° W 22:04:38 56° NNW 22:07:52 10° ENE visible
31 May -1.6 23:38:27 10° WNW 23:41:29 33° N 23:44:30 10° ENE visible
01 Jun -2.9 01:15:03 10° WNW 01:18:18 60° NNE 01:18:39 55° NE visible
01 Jun -1.6 22:45:29 10° WNW 22:48:32 35° N 22:51:35 10° ENE visible
02 Jun -2.2 00:22:16 10° WNW 00:25:25 44° NNE 00:27:00 24° ENE visible
02 Jun -1.1 01:58:44 10° WNW 01:59:33 16° WNW 01:59:33 16° WNW visible
02 Jun -1.9 21:52:29 10° W 21:55:35 40° NNW 21:58:42 10° ENE visible
02 Jun -1.8 23:29:25 10° WNW 23:32:30 37° N 23:35:32 10° ENE visible
03 Jun -2.4 01:05:52 10° WNW 01:08:07 40° WNW 01:08:07 40° WNW visible
03 Jun -1.6 22:36:30 10° WNW 22:39:31 34° N 22:42:33 10° ENE visible
04 Jun -3.1 00:13:03 10° WNW 00:16:19 67° NNE 00:16:47 56° ENE visible
04 Jun -1.6 21:43:30 10° WNW 21:46:32 34° N 21:49:34 10° ENE visible
04 Jun -2.4 23:20:13 10° WNW 23:23:24 48° NNE 23:25:30 19° E visible
05 Jun -1.4 00:56:44 10° WNW 00:58:05 21° W 00:58:05 21° W visible
05 Jun -2.0 22:27:21 10° WNW 22:30:26 38° N 22:33:32 10° E visible
06 Jun -3.3 00:03:48 10° WNW 00:06:52 66° WSW 00:06:52 66° WSW visible
06 Jun -1.7 21:34:24 10° WNW 21:37:27 34° N 21:40:28 10° ENE visible
06 Jun -3.3 23:10:55 10° WNW 23:14:12 76° NNE 23:15:40 30° ESE visible
07 Jun -0.7 00:47:51 10° W 00:48:16 12° W 00:48:16 12° W visible
07 Jun -2.6 22:18:03 10° WNW 22:21:16 52° NNE 22:24:29 10° E visible
07 Jun -2.2 23:54:37 10° WNW 23:57:06 32° WSW 23:57:06 32° WSW visible
08 Jun -3.2 23:01:37 10° WNW 23:04:50 59° SSW 23:05:58 35° SSE visible
09 Jun -3.3 22:08:41 10° WNW 22:11:58 85° NNE 22:14:52 13° ESE visible
09 Jun -1.2 23:45:47 10° W 23:47:27 17° WSW 23:47:27 17° WSW visible
